CW1020 Weather Reports


time (UTC)temp
F
wind
direction
speed
knots
gust
knots
rain 1hr
in
rain 24hr
in
rain mn
in
humidity
%
barometer
mb
20260905010504 69 239 7.0 14.8 0.00 0.00 0.00 54 1016.3
20260905010004 69 223 7.0 11.3 0.00 0.00 0.00 52 1016.3
20260905005504 70 216 7.0 11.3 0.00 0.00 0.00 51 1016.3
20260905005003 70 216 7.8 9.6 0.00 0.00 0.00 52 1016.2
20260905004503 70 226 8.7 10.4 0.00 0.00 0.00 52 1016.2
20260905004003 70 232 8.7 13.0 0.00 0.00 0.00 50 1016.2
20260905003504 70 235 8.7 14.8 0.00 0.00 0.00 50 1016.2
20260905003003 70 231 10.4 13.9 0.00 0.00 0.00 50 1016.1
20260905002503 70 232 10.4 14.8 0.00 0.00 0.00 50 1016.0
20260905002003 70 233 9.6 18.2 0.00 0.00 0.00 49 1016.0
20260905001504 70 238 9.6 12.2 0.00 0.00 0.00 48 1016.1
20260905001003 71 233 8.7 13.0 0.00 0.00 0.00 47 1016.1
20260905000503 71 240 7.0 14.8 0.00 0.00 0.00 46 1016.1
20260905000003 71 211 7.0 10.4 0.00 0.00 0.00 46 1016.2
20260904235503 71 218 7.8 12.2 0.00 0.00 0.00 47 1016.0
20260904234504 71 233 9.6 13.9 0.00 0.00 0.00 50 1016.0
20260904233503 71 230 9.6 16.5 0.00 0.00 0.00 48 1016.0
20260904233004 71 233 9.6 14.8 0.00 0.00 0.00 49 1016.0
20260904232503 71 235 9.6 16.5 0.00 0.00 0.00 48 1016.0
20260904232003 71 234 8.7 14.8 0.00 0.00 0.00 47 1016.0
20260904230003 71 233 10.4 14.8 0.00 0.00 0.00 49 1016.0
20260904225504 70 236 10.4 16.5 0.00 0.00 0.00 50 1016.1
20260904225003 71 232 11.3 18.2 0.00 0.00 0.00 50 1016.0
20260904224503 70 232 11.3 20.0 0.00 0.00 0.00 51 1016.0
20260904224003 71 236 10.4 17.4 0.00 0.00 0.00 50 1015.9
20260904223003 70 238 10.4 14.8 0.00 0.00 0.00 51 1015.9
20260904222503 70 236 11.3 16.5 0.00 0.00 0.00 50 1015.8
20260904222003 70 236 10.4 14.8 0.00 0.00 0.00 50 1015.9
20260904221504 71 235 10.4 20.0 0.00 0.00 0.00 51 1015.9
20260904221003 70 229 11.3 13.9 0.00 0.00 0.00 51 1015.9
20260904220503 70 234 10.4 14.8 0.00 0.00 0.00 51 1016.0
20260904215503 70 228 10.4 12.2 0.00 0.00 0.00 52 1016.1
20260904214503 70 237 10.4 14.8 0.00 0.00 0.00 52 1016.0
20260904214004 70 239 10.4 16.5 0.00 0.00 0.00 51 1016.0
20260904213003 70 239 10.4 17.4 0.00 0.00 0.00 52 1016.0
20260904212504 71 235 9.6 14.8 0.00 0.00 0.00 51 1016.0
20260904212003 71 234 9.6 16.5 0.00 0.00 0.00 51 1016.1
20260904211504 70 234 10.4 16.5 0.00 0.00 0.00 52 1016.1
20260904211003 70 234 9.6 14.8 0.00 0.00 0.00 52 1016.1
20260904210502 70 232 9.6 17.4 0.00 0.00 0.00 52 1016.2
20260904210003 70 232 9.6 16.5 0.00 0.00 0.00 53 1016.3
20260904205503 70 230 10.4 16.5 0.00 0.00 0.00 52 1016.3
20260904205002 70 232 9.6 15.6 0.00 0.00 0.00 52 1016.2
20260904204502 70 235 9.6 14.8 0.00 0.00 0.00 52 1016.4
20260904204002 70 230 10.4 12.2 0.00 0.00 0.00 53 1016.3
20260904203502 70 238 11.3 16.5 0.00 0.00 0.00 53 1016.4
20260904203002 69 243 10.4 16.5 0.00 0.00 0.00 53 1016.2
20260904202503 70 234 10.4 16.5 0.00 0.00 0.00 53 1016.2
20260904202002 69 234 10.4 14.8 0.00 0.00 0.00 53 1016.2
20260904201502 69 238 9.6 17.4 0.00 0.00 0.00 53 1016.3
20260904201003 69 233 8.7 13.0 0.00 0.00 0.00 53 1016.3
20260904200503 69 235 8.7 12.2 0.00 0.00 0.00 54 1016.4
20260904200002 68 239 9.6 13.9 0.00 0.00 0.00 53 1016.3
20260904195502 68 240 10.4 13.0 0.00 0.00 0.00 54 1016.3
20260904195003 68 238 11.3 14.8 0.00 0.00 0.00 54 1016.4
20260904194502 68 236 10.4 19.1 0.00 0.00 0.00 54 1016.3
20260904194002 68 236 10.4 15.6 0.00 0.00 0.00 54 1016.3
20260904193502 68 233 8.7 16.5 0.00 0.00 0.00 53 1016.4
20260904193003 68 236 7.8 13.9 0.00 0.00 0.00 52 1016.4
20260904192502 68 239 7.8 13.9 0.00 0.00 0.00 53 1016.6
20260904191503 67 238 9.6 15.6 0.00 0.00 0.00 54 1016.6
20260904191002 67 241 9.6 13.9 0.00 0.00 0.00 54 1016.7
20260904190502 67 235 8.7 13.9 0.00 0.00 0.00 55 1016.7
20260904190003 66 236 7.8 14.8 0.00 0.00 0.00 55 1016.8
20260904185002 66 240 8.7 13.9 0.00 0.00 0.00 57 1016.8
20260904184503 66 236 7.8 13.9 0.00 0.00 0.00 57 1016.9
20260904184002 66 239 8.7 13.0 0.00 0.00 0.00 56 1016.9
20260904183502 66 236 10.4 15.6 0.00 0.00 0.00 57 1016.8
20260904183003 66 235 10.4 15.6 0.00 0.00 0.00 56 1016.9
20260904182503 65 236 8.7 16.5 0.00 0.00 0.00 56 1016.8
20260904182003 65 238 7.0 15.6 0.00 0.00 0.00 58 1016.9
20260904181503 65 235 7.8 14.8 0.00 0.00 0.00 58 1017.1
20260904181002 64 245 7.0 13.0 0.00 0.00 0.00 59 1017.2
20260904180502 64 238 6.1 14.8 0.00 0.00 0.00 59 1017.2
20260904180002 64 244 7.0 11.3 0.00 0.00 0.00 60 1017.2
20260904175502 64 241 7.8 13.9 0.00 0.00 0.00 60 1017.3
20260904175002 64 233 7.0 12.2 0.00 0.00 0.00 58 1017.2
20260904174503 63 245 7.0 9.6 0.00 0.00 0.00 58 1017.2
20260904174002 63 233 7.8 11.3 0.00 0.00 0.00 59 1017.1
20260904173502 63 238 7.8 13.0 0.00 0.00 0.00 58 1017.0
20260904173002 63 235 6.1 13.0 0.00 0.00 0.00 58 1017.1
20260904172502 63 233 6.1 10.4 0.00 0.00 0.00 58 1017.0
20260904172003 63 240 6.1 8.7 0.00 0.00 0.00 58 1017.0
20260904171502 62 239 4.3 10.4 0.00 0.00 0.00 59 1017.1
20260904171002 62 238 3.5 8.7 0.00 0.00 0.00 60 1017.1
20260904170502 62 242 4.3 9.6 0.00 0.00 0.00 60 1017.0
20260904170002 61 240 5.2 12.2 0.00 0.00 0.00 60 1017.0
20260904165502 61 236 6.1 10.4 0.00 0.00 0.00 60 1017.0
20260904165003 61 242 7.0 9.6 0.00 0.00 0.00 60 1016.9
20260904164502 61 238 7.0 10.4 0.00 0.00 0.00 60 1016.7
20260904164002 61 241 6.1 12.2 0.00 0.00 0.00 60 1016.5
20260904163502 61 233 5.2 11.3 0.00 0.00 0.00 60 1016.5
20260904163002 61 237 5.2 10.4 0.00 0.00 0.00 60 1016.5
20260904162503 61 235 5.2 9.6 0.00 0.00 0.00 60 1016.4
20260904162003 61 240 4.3 10.4 0.00 0.00 0.00 60 1016.4
20260904161502 60 235 3.5 10.4 0.00 0.00 0.00 61 1016.5
20260904160502 60 242 4.3 7.0 0.00 0.00 0.00 62 1016.5
20260904160002 59 236 4.3 7.0 0.00 0.00 0.00 63 1016.4
20260904155503 59 240 4.3 8.7 0.00 0.00 0.00 63 1016.6
20260904155002 59 236 4.3 7.0 0.00 0.00 0.00 63 1016.5
20260904154003 58 240 2.6 9.6 0.00 0.00 0.00 64 1016.5
20260904153502 58 241 2.6 7.0 0.00 0.00 0.00 65 1016.6
20260904153002 58 241 2.6 4.3 0.00 0.00 0.00 66 1016.6
20260904152503 57 241 2.6 6.1 0.00 0.00 0.00 66 1016.5
20260904152003 57 241 2.6 6.1 0.00 0.00 0.00 67 1016.5
20260904151502 57 239 2.6 7.0 0.00 0.00 0.00 67 1016.6
20260904151002 57 235 2.6 4.3 0.00 0.00 0.00 67 1016.5
20260904150503 56 242 1.7 7.0 0.00 0.00 0.00 68 1016.4
20260904150002 56 237 1.7 3.5 0.00 0.00 0.00 69 1016.3
20260904145503 56 238 1.7 7.0 0.00 0.00 0.00 69 1016.3
20260904145002 55 245 1.7 4.3 0.00 0.00 0.00 71 1016.2
20260904144502 54 243 1.7 3.5 0.00 0.00 0.00 73 1016.2
20260904144003 53 241 0.9 5.2 0.00 0.00 0.00 75 1016.1
20260904143502 52 201 0.0 2.6 0.00 0.00 0.00 76 1016.1
20260904143002 52 0 0.0 0.0 0.00 0.00 0.00 75 1016.0
20260904142503 52 0 0.0 0.0 0.00 0.00 0.00 75 1016.1
20260904142002 52 0 0.0 0.0 0.00 0.00 0.00 75 1016.0
20260904141503 51 0 0.0 0.0 0.00 0.00 0.00 75 1016.0
20260904141003 51 0 0.0 0.0 0.00 0.00 0.00 75 1016.0
20260904140502 51 63 0.0 0.9 0.00 0.00 0.00 74 1015.9
20260904135503 52 0 0.0 0.0 0.00 0.00 0.00 73 1015.8
20260904135003 52 0 0.0 0.0 0.00 0.00 0.00 73 1015.8
20260904134502 52 134 0.0 0.9 0.00 0.00 0.00 73 1015.8
20260904133503 52 0 0.0 0.0 0.00 0.00 0.00 72 1015.7
20260904133003 52 0 0.0 0.0 0.00 0.00 0.00 71 1015.8
20260904132502 52 0 0.0 0.0 0.00 0.00 0.00 71 1015.8
20260904132002 53 0 0.0 0.0 0.00 0.00 0.00 71 1015.9
20260904131502 53 0 0.0 0.0 0.00 0.00 0.00 71 1015.8
20260904131003 53 0 0.0 0.0 0.00 0.00 0.00 71 1015.7
20260904130503 53 0 0.0 0.0 0.00 0.00 0.00 70 1015.7
20260904125502 54 159 0.0 0.9 0.00 0.00 0.00 69 1015.6
20260904125002 54 116 0.0 0.9 0.00 0.00 0.00 69 1015.6
20260904124503 54 0 0.0 0.0 0.00 0.00 0.00 69 1015.6
20260904124002 54 0 0.0 0.0 0.00 0.00 0.00 68 1015.6
20260904123003 55 0 0.0 0.0 0.00 0.00 0.00 68 1015.4
20260904122502 55 0 0.0 0.0 0.00 0.00 0.00 68 1015.5
20260904122003 55 129 0.0 0.9 0.00 0.00 0.00 68 1015.4
20260904121503 55 0 0.0 0.0 0.00 0.00 0.00 68 1015.4
20260904121002 55 131 0.0 0.9 0.00 0.00 0.00 67 1015.4
20260904115502 56 205 0.0 0.9 0.00 0.00 0.00 66 1015.5
20260904114003 56 0 0.0 0.0 0.00 0.00 0.00 66 1015.5
20260904113502 56 243 0.0 0.9 0.00 0.00 0.00 66 1015.5
20260904113003 56 244 0.9 1.7 0.00 0.00 0.00 66 1015.6
20260904112503 56 242 0.9 1.7 0.00 0.00 0.00 66 1015.5
20260904111503 56 245 0.9 2.6 0.00 0.00 0.00 66 1015.4
20260904110503 56 224 0.0 1.7 0.00 0.00 0.00 66 1015.4
20260904110003 57 201 0.0 0.9 0.00 0.00 0.00 66 1015.4
20260904105502 57 0 0.0 0.0 0.00 0.00 0.00 66 1015.5
20260904103502 57 0 0.0 0.0 0.00 0.00 0.00 64 1015.4
20260904103003 57 0 0.0 0.0 0.00 0.00 0.00 64 1015.4
20260904102503 57 166 0.0 0.9 0.00 0.00 0.00 63 1015.2
20260904102002 57 0 0.0 0.0 0.00 0.00 0.00 64 1015.3
20260904101503 57 0 0.0 0.0 0.00 0.00 0.00 63 1015.3
20260904101003 57 0 0.0 0.0 0.00 0.00 0.00 63 1015.3
20260904100503 57 0 0.0 0.0 0.00 0.00 0.00 63 1015.4
20260904100003 58 0 0.0 0.0 0.00 0.00 0.00 62 1015.3
20260904095502 58 0 0.0 0.0 0.00 0.00 0.00 62 1015.4
20260904095003 58 0 0.0 0.0 0.00 0.00 0.00 62 1015.4
20260904094503 58 0 0.0 0.0 0.00 0.00 0.00 61 1015.3
20260904094002 58 166 0.0 0.9 0.00 0.00 0.00 61 1015.4
20260904093503 58 169 0.0 0.9 0.00 0.00 0.00 61 1015.4
20260904091502 58 0 0.0 0.0 0.00 0.00 0.00 61 1015.4
20260904090004 59 0 0.0 0.0 0.00 0.00 0.00 59 1015.4
20260904085503 59 161 0.0 0.9 0.00 0.00 0.00 59 1015.5
20260904085003 60 160 0.0 0.9 0.00 0.00 0.00 59 1015.5
20260904084503 60 159 0.0 0.9 0.00 0.00 0.00 58 1015.6
20260904083503 60 0 0.0 0.0 0.00 0.00 0.00 57 1015.6
20260904083002 61 0 0.0 0.0 0.00 0.00 0.00 57 1015.7
20260904082503 61 135 0.0 0.9 0.00 0.00 0.00 56 1015.8
20260904082003 61 143 0.0 0.9 0.00 0.00 0.00 56 1015.9
20260904081503 62 160 0.0 0.9 0.00 0.00 0.00 54 1015.7
20260904081003 62 0 0.0 0.0 0.00 0.00 0.00 54 1015.7
20260904080503 62 164 0.9 0.9 0.00 0.00 0.00 54 1015.7
20260904080003 62 177 0.9 2.6 0.00 0.00 0.00 54 1015.7
20260904075503 62 217 1.7 1.7 0.00 0.00 0.00 54 1015.6
20260904075003 62 167 2.6 3.5 0.00 0.00 0.00 53 1015.6
20260904074503 62 164 2.6 7.0 0.00 0.00 0.00 53 1015.6
20260904074003 62 167 3.5 4.3 0.00 0.00 0.00 54 1015.6
20260904073003 62 145 3.5 6.1 0.00 0.00 0.00 54 1015.7
20260904072502 62 153 3.5 6.1 0.00 0.00 0.00 54 1015.6
20260904072003 62 147 2.6 6.1 0.00 0.00 0.00 54 1015.6
20260904071503 62 150 1.7 8.7 0.00 0.00 0.00 55 1015.6
20260904071003 62 163 3.5 4.3 0.00 0.00 0.00 54 1015.5
20260904070503 61 156 3.5 7.8 0.00 0.00 0.00 56 1015.5
20260904070004 60 152 1.7 7.8 0.00 0.00 0.00 57 1015.6
20260904065502 60 153 0.0 7.8 0.00 0.00 0.00 57 1015.6
20260904064503 60 172 0.0 1.7 0.00 0.00 0.00 56 1015.5
20260904064003 60 192 0.0 0.9 0.00 0.00 0.00 55 1015.5
20260904063502 60 209 0.0 0.9 0.00 0.00 0.00 55 1015.5
20260904063003 60 227 0.0 0.9 0.00 0.00 0.00 55 1015.4
20260904062503 60 0 0.0 0.0 0.00 0.00 0.00 54 1015.3
20260904062003 60 0 0.0 0.0 0.00 0.00 0.00 55 1015.5
20260904061502 60 0 0.0 0.0 0.00 0.00 0.00 54 1015.4
20260904061003 60 0 0.0 0.0 0.00 0.00 0.00 53 1015.3
20260904060503 60 0 0.0 0.0 0.00 0.00 0.00 53 1015.3
20260904060003 60 0 0.0 0.0 0.00 0.00 0.00 53 1015.3
20260904055503 60 232 0.0 0.9 0.00 0.00 0.00 53 1015.2
20260904055003 60 232 0.0 0.9 0.00 0.00 0.00 52 1015.2
20260904054503 60 215 0.0 1.7 0.00 0.00 0.00 53 1015.2
20260904054003 60 0 0.0 0.0 0.00 0.00 0.00 53 1015.2
20260904053503 60 95 0.0 0.9 0.00 0.00 0.00 53 1015.2
20260904053003 60 0 0.0 0.0 0.00 0.00 0.00 52 1015.2
20260904052502 60 95 0.0 0.9 0.00 0.00 0.00 52 1015.3
20260904052002 60 0 0.0 0.0 0.00 0.00 0.00 51 1015.3
20260904051503 61 148 0.0 1.7 0.00 0.00 0.00 52 1015.3
20260904051003 61 137 0.0 1.7 0.00 0.00 0.00 52 1015.4
20260904050503 61 133 0.9 1.7 0.00 0.00 0.00 52 1015.4
20260904050004 61 167 0.9 1.7 0.00 0.00 0.00 52 1015.4
20260904045503 61 120 0.0 2.6 0.00 0.00 0.00 52 1015.4
20260904045003 61 144 0.0 1.7 0.00 0.00 0.00 51 1015.4
20260904044503 62 143 0.0 1.7 0.00 0.00 0.00 51 1015.3
20260904044003 62 150 0.9 1.7 0.00 0.00 0.00 51 1015.3
20260904043503 62 147 0.9 1.7 0.00 0.00 0.00 51 1015.3
20260904043004 62 139 0.9 1.7 0.00 0.00 0.00 51 1015.2
20260904042503 62 146 0.0 1.7 0.00 0.00 0.00 51 1015.4
20260904042003 62 154 0.9 0.9 0.00 0.00 0.00 50 1015.3
20260904041502 62 150 0.9 2.6 0.00 0.00 0.00 51 1015.4
20260904041003 63 137 0.0 1.7 0.00 0.00 0.00 50 1015.3
20260904040503 63 138 0.9 1.7 0.00 0.00 0.00 50 1015.2
20260904040003 63 146 1.7 1.7 0.00 0.00 0.00 50 1015.2
20260904035503 63 144 1.7 2.6 0.00 0.00 0.00 50 1015.2
20260904035003 63 141 1.7 3.5 0.00 0.00 0.00 50 1015.2
20260904034004 63 146 1.7 3.5 0.00 0.00 0.00 49 1015.2
20260904033503 63 152 0.9 2.6 0.00 0.00 0.00 49 1015.3
20260904033003 63 154 0.9 1.7 0.00 0.00 0.00 48 1015.2
20260904032003 64 163 1.7 2.6 0.00 0.00 0.00 48 1015.2
20260904031004 64 156 1.7 4.3 0.00 0.00 0.00 47 1015.1
20260904030503 64 163 0.9 2.6 0.00 0.00 0.00 46 1015.2
20260904030003 64 160 0.9 3.5 0.00 0.00 0.00 45 1015.2
20260904025003 65 174 1.7 1.7 0.00 0.00 0.00 45 1015.2
20260904024003 65 174 2.6 2.6 0.00 0.00 0.00 45 1015.2
20260904023504 66 181 3.5 4.3 0.00 0.00 0.00 45 1015.2
20260904023003 66 181 3.5 7.8 0.00 0.00 0.00 45 1015.2
20260904022502 66 191 3.5 5.2 0.00 0.00 0.00 45 1015.2
20260904021003 66 209 4.3 7.8 0.00 0.00 0.00 44 1015.2
20260904020004 67 219 5.2 7.8 0.00 0.00 0.00 42 1015.1
20260904015503 67 235 5.2 10.4 0.00 0.00 0.00 41 1015.2
20260904015003 67 229 6.1 9.6 0.00 0.00 0.00 41 1015.2
20260904014003 68 232 6.1 12.2 0.00 0.00 0.00 39 1015.1
20260904013503 69 220 6.1 8.7 0.00 0.00 0.00 38 1015.2
20260904013004 69 226 7.0 6.1 0.00 0.00 0.00 38 1015.3
20260904012503 69 235 7.0 11.3 0.00 0.00 0.00 37 1015.2
20260904012003 69 233 7.0 11.3 0.00 0.00 0.00 37 1015.3
20260904011503 70 228 7.0 11.3 0.00 0.00 0.00 37 1015.2
20260904011004 70 218 7.8 10.4 0.00 0.00 0.00 37 1015.2